Regional Weather Roundup
Issued by NWS

Home | Current Version | Previous Version | Text Only | Print | Product List | Glossary Off
Versions: 1 2 3 4 5 6 7 8 9 10 11 12 13 14 15 16 17 18 19 20 21 22 23 24 25 26 27 28 29 30 31 32 33 34 35 36 37 38 39 40 41 42 43 44 45 46 47 48 49 50

000
ASUS43 KDTX 050801
RWRMI
MICHIGAN HOURLY REGIONAL WEATHER ROUNDUP
NATIONAL WEATHER SERVICE DETROIT/PONTIAC MI
400 AM EDT SUN JUL 05 2015

NOTE: "FAIR" INDICATES FEW OR NO CLOUDS BELOW 12,000 FEET WITH NO
SIGNIFICANT WEATHER AND/OR OBSTRUCTION TO VISIBILITY.

MIZ047>049-052>055-059>063-066>070-074>076-081>083-050900-
SOUTHEAST LOWER MICHIGAN

CITY           SKY/WX    TMP DP  RH WIND       PRES   REMARKS
ADRIAN         CLEAR     59  57  93 CALM      30.09R
ALMA           CLEAR     60  59  98 CALM      30.08S FOG
ANN ARBOR      CLEAR     53  52  96 CALM      30.08R
BAD AXE        CLEAR     57  55  93 CALM      30.06S
CARO           MOCLDY    60  57  91 CALM      30.06R
DETROIT CITY   CLEAR     65  59  81 W5        30.08S
DETROIT        PTCLDY    63  58  83 CALM      30.09R
FLINT          CLEAR     61  57  87 S3        30.08R FOG
GROSSE ILE     CLEAR     63  61  94 CALM      30.07R
HILLSDALE      CLEAR     57  57 100 CALM      30.10R FOG
HOWELL         CLEAR     59  57  92 CALM      30.09R FOG

CITY           SKY/WX    TMP DP  RH WIND       PRES   REMARKS
JACKSON        CLEAR     57  55  93 CALM      30.09R
LAMBERTVILLE     N/A     58  55  88 CALM      30.08S FOG
LANSING        CLEAR     60  58  92 CALM      30.09R FOG
LAPEER         FAIR      57  55  94 CALM      30.08R FOG
MASON          CLEAR     55  54  97 CALM      30.09R FOG
MONROE         CLEAR     57  56  95 CALM      30.07S FOG
MT. CLEMENS    CLEAR     60  56  88 S1        30.06R
PONTIAC        CLEAR     60  57  89 CALM      30.08R FOG
PORT HOPE        N/A     58  57  97 CALM      30.04R
PORT HURON     CLEAR     57  57 100 CALM      30.08R FOG
TRI CITIES     CLEAR     64  58  80 NW3       30.07R
MIDLAND        FAIR      59  57  92 CALM      30.07R
TROY           CLEAR     65  58  77 CALM      30.10R HAZE
SAGINAW HB     PTCLDY    63  63 100 W5        30.06S
$$
MIZ043>046-050>051-056>058-064>065-071>073-077>080-050900-
SOUTHWEST LOWER MICHIGAN

CITY           SKY/WX    TMP DP  RH WIND       PRES   REMARKS
BATTLE CREEK   CLEAR     61  57  87 CALM      30.09R
BENTON HARBOR  CLEAR     54  53  97 CALM      30.07R FOG
BIG RAPIDS     CLEAR     57  55  90 NW3       30.08S FOG
COLDWATER      CLEAR     57  56  97 CALM      30.08S FOG
FREMONT        FAIR      57  56  99 CALM      30.07S FOG
HOLLAND        CLEAR     59  57  93 CALM      30.08R FOG
GRAND RAPIDS   CLEAR     59  56  89 CALM      30.08R FOG
IONIA          FAIR      59  57  94 CALM      30.07S FOG
KALAMAZOO      CLEAR     59  56  89 CALM      30.09R FOG
LUDINGTON        N/A     56  54  92 CALM      30.07S FOG
MARSHALL       CLEAR     57  56  94 CALM      30.08R FOG
MOUNT PLEASANT FOG       60  59  96 CALM      30.07R VSB 1/2
MUSKEGON       CLEAR     59  55  87 CALM      30.08R FOG
SOUTH HAVEN    CLEAR     55  54  95 CALM      30.07R FOG
$$
MIZ016>042-050900-
NORTHERN LOWER MICHIGAN

CITY           SKY/WX    TMP DP  RH WIND       PRES   REMARKS
ALPENA         CLEAR     52  49  89 CALM      30.07S
BEAVER ISLAND  CLEAR     52  51  98 CALM      30.04F FOG
BELLAIRE       CLEAR     52  51  96 CALM      30.06S FOG
CADILLAC         N/A     53  51  95 CALM      30.08S FOG
CHARLEVOIX     CLEAR     56  55  97 CALM      30.08F FOG
FRANKFORT      CLEAR     55  50  82 CALM      30.05F HAZE
GAYLORD        CLEAR     51  50  96 CALM      30.08S
GRAYLING       CLEAR     48  46  92 CALM      30.08F FOG
HARBOR SPRINGS CLEAR     55  55  98 CALM      30.06S FOG
HOUGHTON LAKE  FOG       54  53  97 CALM      30.08S VSB 3/4
MANISTEE       CLEAR     54  52  94 SE3       30.07S
OSCODA         CLEAR     53  52  97 CALM      30.06R
PELLSTON       PTCLDY    50  48  93 CALM      30.06S
ROGERS CITY    CLEAR     54  53  97 CALM      30.07S
TRAVERSE CITY  CLEAR     57  55  93 S3        30.04F
$$
MIZ007>008-015-050900-
EASTERN UPPER MICHIGAN

CITY           SKY/WX    TMP DP  RH WIND       PRES   REMARKS
KINROSS        CLEAR     50  50 100 CALM      30.05F
MACKINAC ISLAN CLEAR     55  54  97 SE8       30.05S
NEWBERRY       CLEAR     53  51  93 S6        30.03F
S. S. MARIE    CLEAR     49  47  93 CALM      30.05R
$$
MIZ004>006-011>014-085-050900-
CENTRAL UPPER MICHIGAN

CITY           SKY/WX    TMP DP  RH WIND       PRES   REMARKS
MANISTIQUE     CLEAR     56  56  97 S6        30.03S FOG
ESCANABA       PTCLDY    55  54  94 CALM      30.01F
MENOMINEE      PTCLDY    63  57  82 S5        30.01S
SAWYER-GWINN   CLEAR     58  55  88 S7        30.01F
$$
MIZ001>003-009>011-084-050900-
WESTERN UPPER MICHIGAN

CITY           SKY/WX    TMP DP  RH WIND       PRES   REMARKS
IRON MOUNTAIN  CLEAR     59  57  93 SE5       30.00F FOG
HOUGHTON       PTCLDY    53  50  89 E3        29.94F
COPPER HARBOR    N/A     58  51  78 SW9G20    29.92F
IRONWOOD       CLEAR     66  64  94 SW6       29.92R
$$

ABBREVIATIONS USED IN REMARKS
   TC - TEMPERATURE IN CELSIUS
  WCI - WIND CHILL INDEX
   HX - HEAT INDEX
  VSB - VISIBILITY




USA.gov is the U.S. government's official web portal to all federal, state and local government web resources and services.